Gwinn, MI

8:47 PM EST on December 05, 2016 (GMT -0500)
Sawyer International

Weather History for KSAW - July, 2013

Change the Weather History Date:

Sunday, July 14, 2013

  Actual Average (KESC) Record (KESC)
Temperature  
Mean Temperature 72 °F -  
Max Temperature 86 °F 74 °F 95 °F (1983)
Min Temperature 59 °F 57 °F 46 °F (1950)
Cooling Degree Days 8    
Growing Degree Days 22 (Base 50)    
Moisture  
Dew Point 58 °F    
Average Humidity 66    
Maximum Humidity 88    
Minimum Humidity 37    
Precipitation  
Precipitation 0.00 in - - ()
Sea Level Pressure  
Sea Level Pressure 30.21 in    
Wind  
Wind Speed 8 mph (SSW)    
Max Wind Speed 16 mph    
Max Gust Speed 20 mph    
Visibility 10 miles    
Events      
Averages and records for this station are not official NWS values.
T = Trace of Precipitation, MM = Missing Value Source: NWS Daily Summary

Daily Weather History Graph

Daily Weather History Graph

Search for Another Location

Airport or City:

Trip Planner

Search our weather history database for the weather conditions in past years. The results will help you decide how hot, cold, wet, or windy it might be!

Date:

Astronomy

Jul. 14, 2013 Rise Set
Actual Time 6:11 AM EDT 9:38 PM EDT
Civil Twilight 5:34 AM EDT 10:16 PM EDT
Nautical Twilight 4:44 AM EDT 11:05 PM EDT
Astronomical Twilight 3:40 AM EDT 12:08 AM EDT
Moon 12:53 PM EDT (7/14) No Moon Set
Length of Visible Light 16h 41m
Length of Day
15h 27m
Waxing Crescent, 35% of the Moon is Illuminated
Jul 14
Waxing Crescent
Jul 15
First Quarter
Jul 22
Full
Jul 29
Last Quarter
Aug 6
New

Hourly Weather History & Observations

Time (EDT) Temp. Heat Index Dew Point Humidity Pressure Visibility Wind Dir Wind Speed Gust Speed Precip Events Conditions
12:13 AM 68.0 °F - 59.0 °F 73% 30.16 in 10.0 mi SSW 8.1 mph - N/A   Clear
12:17 AM 68.0 °F - 59.0 °F 73% 30.16 in 10.0 mi SSW 8.1 mph - N/A   Clear
12:41 AM 66.2 °F - 59.0 °F 78% 30.17 in 10.0 mi SSW 8.1 mph - N/A   Clear
12:57 AM 66.2 °F - 59.0 °F 78% 30.18 in 10.0 mi SSW 8.1 mph - N/A   Clear
1:17 AM 66.2 °F - 59.0 °F 78% 30.18 in 10.0 mi SSW 8.1 mph - N/A   Clear
2:17 AM 66.2 °F - 55.4 °F 68% 30.20 in 10.0 mi SSW 8.1 mph - N/A   Clear
2:39 AM 64.4 °F - 57.2 °F 77% 30.19 in 10.0 mi SSW 8.1 mph - N/A   Clear
3:25 AM 62.6 °F - 55.4 °F 77% 30.19 in 10.0 mi SSW 6.9 mph - N/A   Clear
3:41 AM 62.6 °F - 55.4 °F 77% 30.20 in 10.0 mi South 8.1 mph - N/A   Clear
4:21 AM 60.8 °F - 55.4 °F 82% - 10.0 mi SSW 8.1 mph - N/A   Clear
4:37 AM 60.8 °F - 55.4 °F 82% 30.19 in 10.0 mi SSW 6.9 mph - N/A   Clear
5:37 AM 60.8 °F - 55.4 °F 82% 30.20 in 10.0 mi SSW 6.9 mph - N/A   Clear
5:59 AM 59.0 °F - 55.4 °F 88% 30.20 in 10.0 mi South 8.1 mph - N/A   Clear
6:50 AM 59.0 °F - 55.4 °F 88% 30.22 in 10.0 mi SSW 6.9 mph - N/A   Clear
7:50 AM 62.6 °F - 57.2 °F 82% 30.22 in 10.0 mi SSW 5.8 mph - N/A   Clear
8:50 AM 69.8 °F - 59.0 °F 68% 30.22 in 10.0 mi SSW 9.2 mph - N/A   Clear
9:50 AM 73.4 °F - 57.2 °F 57% 30.22 in 10.0 mi SW 9.2 mph - N/A   Clear
10:50 AM 77.0 °F - 59.0 °F 54% 30.23 in 10.0 mi SSW 13.8 mph - N/A   Clear
11:50 AM 80.6 °F 81.1 °F 59.0 °F 48% 30.24 in 10.0 mi SW 12.7 mph - N/A   Clear
12:50 PM 82.4 °F 82.5 °F 59.0 °F 45% 30.23 in 10.0 mi WSW 16.1 mph - N/A   Partly Cloudy
1:55 PM 84.2 °F 83.5 °F 57.2 °F 40% 30.23 in 10.0 mi WSW 13.8 mph 19.6 mph N/A   Clear
2:50 PM 86.0 °F 84.9 °F 57.2 °F 37% 30.22 in 10.0 mi SSW 11.5 mph 17.3 mph N/A   Clear
3:55 PM 86.0 °F 84.9 °F 57.2 °F 37% 30.21 in 10.0 mi SSW 12.7 mph 19.6 mph N/A   Scattered Clouds
4:50 PM 86.0 °F 85.4 °F 59.0 °F 40% 30.21 in 10.0 mi SW 6.9 mph 16.1 mph N/A   Scattered Clouds
5:50 PM 86.0 °F 85.4 °F 59.0 °F 40% 30.21 in 10.0 mi SSW 8.1 mph - N/A   Scattered Clouds
6:50 PM 86.0 °F 86.1 °F 60.8 °F 43% 30.21 in 10.0 mi SW 10.4 mph - N/A   Scattered Clouds
7:50 PM 78.8 °F - 60.8 °F 54% 30.21 in 10.0 mi ENE 6.9 mph - N/A   Scattered Clouds
8:50 PM 75.2 °F - 60.8 °F 61% 30.22 in 10.0 mi North 4.6 mph - N/A   Partly Cloudy
9:48 PM 73.4 °F - 59.0 °F 61% 30.22 in 10.0 mi Calm Calm - N/A   Clear
10:18 PM 73.4 °F - 62.6 °F 69% 30.23 in 10.0 mi South 4.6 mph - N/A   Clear
11:11 PM 71.6 °F - 66.2 °F 83% 30.24 in 10.0 mi South 4.6 mph - N/A   Clear
11:58 PM 71.6 °F - 66.2 °F 83% 30.24 in 10.0 mi South 4.6 mph - N/A   Clear